Time,TemperatureF,DewpointF,PressureIn,WindDirection,WindDirectionDegrees,WindSpeedMPH,WindSpeedGustMPH,Humidity,HourlyPrecipIn,Conditions,Clouds,dailyrainin,SoftwareType,DateUTC
2013-04-15 00:03:00,50.7,46.4,24.80,WNW,299,5.0,5.0,85,0.00,,---,0.00,VWS V13.01,2013-04-15 07:03:00,
2013-04-15 00:32:00,49.2,44.3,24.80,North,355,0.0,14.0,83,0.00,,---,0.00,VWS V13.01,2013-04-15 07:32:00,
2013-04-15 00:34:00,49.1,44.2,24.80,ESE,114,3.0,14.0,83,0.00,,---,0.00,VWS V13.01,2013-04-15 07:34:00,
2013-04-15 00:35:00,49.1,44.2,24.80,North,5,4.0,14.0,83,0.00,,---,0.00,VWS V13.01,2013-04-15 07:35:00,
2013-04-15 00:36:00,49.0,44.1,24.80,NNW,333,5.0,14.0,83,0.00,,---,0.00,VWS V13.01,2013-04-15 07:36:00,
2013-04-15 00:37:00,49.0,44.1,24.80,NNW,340,1.0,14.0,83,0.00,,---,0.00,VWS V13.01,2013-04-15 07:37:00,
2013-04-15 00:38:00,48.9,44.0,24.80,NNW,340,1.0,14.0,83,0.00,,---,0.00,VWS V13.01,2013-04-15 07:38:00,
2013-04-15 00:39:00,48.9,44.0,24.80,WNW,290,3.0,14.0,83,0.00,,---,0.00,VWS V13.01,2013-04-15 07:39:00,
2013-04-15 00:40:00,48.8,43.9,24.80,NW,306,2.0,14.0,83,0.00,,---,0.00,VWS V13.01,2013-04-15 07:40:00,
2013-04-15 00:41:00,48.8,43.9,24.80,NNW,333,0.0,14.0,83,0.00,,---,0.00,VWS V13.01,2013-04-15 07:41:00,
2013-04-15 00:44:00,50.2,45.6,24.80,WNW,283,0.0,11.0,84,0.00,,---,0.00,VWS V13.01,2013-04-15 07:44:00,
2013-04-15 00:50:00,50.1,45.5,24.80,WNW,294,0.0,11.0,84,0.00,,---,0.00,VWS V13.01,2013-04-15 07:50:00,
2013-04-15 00:55:00,50.0,45.4,24.80,WNW,302,0.0,11.0,84,0.00,,---,0.00,VWS V13.01,2013-04-15 07:55:00,
2013-04-15 01:00:00,49.9,45.3,24.80,West,270,2.0,13.0,84,0.00,,---,0.00,VWS V13.01,2013-04-15 08:00:00,
2013-04-15 01:06:00,49.9,45.0,24.80,WNW,292,2.0,13.0,83,0.00,,---,0.00,VWS V13.01,2013-04-15 08:06:00,
2013-04-15 01:11:00,49.9,45.0,24.80,West,265,1.0,14.0,83,0.00,,---,0.00,VWS V13.01,2013-04-15 08:11:00,
2013-04-15 01:16:00,49.9,45.0,24.80,NNW,329,2.0,14.0,83,0.00,,---,0.00,VWS V13.01,2013-04-15 08:16:00,
2013-04-15 01:21:00,49.7,44.8,24.80,NNW,333,6.0,14.0,83,0.00,,---,0.00,VWS V13.01,2013-04-15 08:21:00,
2013-04-15 01:26:00,49.5,44.6,24.80,NW,321,1.0,14.0,83,0.00,,---,0.00,VWS V13.01,2013-04-15 08:26:00,
2013-04-15 01:31:00,49.3,44.4,24.80,NNW,348,4.0,14.0,83,0.00,,---,0.00,VWS V13.01,2013-04-15 08:31:00,
2013-04-15 01:37:00,49.1,44.2,24.80,NW,317,6.0,14.0,83,0.00,,---,0.00,VWS V13.01,2013-04-15 08:37:00,
2013-04-15 01:43:00,48.8,43.9,24.80,NNW,331,5.0,14.0,83,0.00,,---,0.00,VWS V13.01,2013-04-15 08:43:00,
2013-04-15 01:48:00,48.7,44.1,24.80,NNW,333,0.0,14.0,84,0.00,,---,0.00,VWS V13.01,2013-04-15 08:48:00,
2013-04-15 01:53:00,48.5,43.9,24.80,NW,323,3.0,14.0,84,0.00,,---,0.00,VWS V13.01,2013-04-15 08:53:00,
2013-04-15 01:58:00,48.3,43.7,24.80,NNE,22,1.0,14.0,84,0.00,,---,0.00,VWS V13.01,2013-04-15 08:58:00,
2013-04-15 02:03:00,48.1,43.5,24.80,NW,314,1.0,1.0,84,0.00,,---,0.00,VWS V13.01,2013-04-15 09:03:00,
2013-04-15 02:08:00,48.0,43.4,24.80,NW,306,0.0,11.0,84,0.00,,---,0.00,VWS V13.01,2013-04-15 09:08:00,
2013-04-15 02:13:00,47.9,43.3,24.80,NNW,331,1.0,11.0,84,0.00,,---,0.00,VWS V13.01,2013-04-15 09:13:00,
2013-04-15 02:18:00,47.8,43.2,24.80,NW,319,2.0,11.0,84,0.00,,---,0.00,VWS V13.01,2013-04-15 09:18:00,
2013-04-15 02:23:00,47.6,43.0,24.80,WNW,300,1.0,11.0,84,0.00,,---,0.00,VWS V13.01,2013-04-15 09:23:00,
2013-04-15 02:28:00,47.5,42.9,24.80,NW,322,2.0,11.0,84,0.00,,---,0.00,VWS V13.01,2013-04-15 09:28:00,
2013-04-15 02:33:00,47.4,42.8,24.80,WNW,284,4.0,11.0,84,0.00,,---,0.00,VWS V13.01,2013-04-15 09:33:00,
2013-04-15 02:38:00,47.3,42.7,24.80,WNW,290,0.0,11.0,84,0.00,,---,0.00,VWS V13.01,2013-04-15 09:38:00,
2013-04-15 02:43:00,47.3,42.7,24.80,SW,225,0.0,11.0,84,0.00,,---,0.00,VWS V13.01,2013-04-15 09:43:00,
2013-04-15 02:48:00,47.3,42.7,24.80,WSW,244,0.0,11.0,84,0.00,,---,0.00,VWS V13.01,2013-04-15 09:48:00,
2013-04-15 02:53:00,47.2,42.6,24.80,SW,236,0.0,11.0,84,0.00,,---,0.00,VWS V13.01,2013-04-15 09:53:00,
2013-04-15 02:58:00,47.2,42.6,24.80,WNW,295,4.0,11.0,84,0.00,,---,0.00,VWS V13.01,2013-04-15 09:58:00,
2013-04-15 03:03:00,47.2,42.6,24.80,WNW,287,4.0,4.0,84,0.00,,---,0.00,VWS V13.01,2013-04-15 10:03:00,
2013-04-15 03:08:00,47.2,42.6,24.80,WNW,283,6.0,11.0,84,0.00,,---,0.00,VWS V13.01,2013-04-15 10:08:00,
2013-04-15 03:13:00,47.1,42.5,24.80,WNW,297,1.0,11.0,84,0.00,,---,0.00,VWS V13.01,2013-04-15 10:13:00,
2013-04-15 03:18:00,47.0,42.1,24.80,WNW,287,3.0,14.0,83,0.00,,---,0.00,VWS V13.01,2013-04-15 10:18:00,
2013-04-15 03:23:00,46.9,42.0,24.80,West,263,5.0,14.0,83,0.00,,---,0.00,VWS V13.01,2013-04-15 10:23:00,
2013-04-15 03:28:00,46.8,41.9,24.80,WNW,291,12.0,14.0,83,0.00,,---,0.00,VWS V13.01,2013-04-15 10:28:00,
2013-04-15 03:33:00,46.8,41.9,24.80,West,259,3.0,14.0,83,0.00,,---,0.00,VWS V13.01,2013-04-15 10:33:00,
2013-04-15 03:38:00,46.7,41.8,24.80,West,275,6.0,15.0,83,0.00,,---,0.00,VWS V13.01,2013-04-15 10:38:00,
2013-04-15 03:43:00,46.7,41.8,24.80,WNW,289,4.0,15.0,83,0.00,,---,0.00,VWS V13.01,2013-04-15 10:43:00,
2013-04-15 03:48:00,46.7,41.8,24.80,NW,325,0.0,15.0,83,0.00,,---,0.00,VWS V13.01,2013-04-15 10:48:00,
2013-04-15 03:53:00,46.7,41.8,24.80,West,263,3.0,15.0,83,0.00,,---,0.00,VWS V13.01,2013-04-15 10:53:00,
2013-04-15 03:58:00,46.7,41.8,24.80,WSW,252,1.0,15.0,83,0.00,,---,0.00,VWS V13.01,2013-04-15 10:58:00,
2013-04-15 04:03:00,46.6,42.0,24.80,West,274,1.0,4.0,84,0.00,,---,0.00,VWS V13.01,2013-04-15 11:03:00,
2013-04-15 04:08:00,46.6,42.0,24.80,SSW,202,4.0,11.0,84,0.00,,---,0.00,VWS V13.01,2013-04-15 11:08:00,
2013-04-15 04:13:00,46.6,42.0,24.80,West,272,1.0,12.0,84,0.00,,---,0.00,VWS V13.01,2013-04-15 11:13:00,
2013-04-15 04:19:00,46.5,41.9,24.80,WNW,298,0.0,12.0,84,0.00,,---,0.00,VWS V13.01,2013-04-15 11:19:00,
2013-04-15 04:24:00,46.5,41.9,24.80,West,280,0.0,12.0,84,0.00,,---,0.00,VWS V13.01,2013-04-15 11:24:00,
2013-04-15 04:29:00,46.5,41.9,24.80,NW,311,4.0,12.0,84,0.00,,---,0.00,VWS V13.01,2013-04-15 11:29:00,
2013-04-15 04:34:00,46.5,41.9,24.80,SW,232,0.0,12.0,84,0.00,,---,0.00,VWS V13.01,2013-04-15 11:34:00,
2013-04-15 04:39:00,46.5,41.9,24.80,West,277,4.0,12.0,84,0.00,,---,0.00,VWS V13.01,2013-04-15 11:39:00,
2013-04-15 04:44:00,46.5,41.6,24.80,NNW,342,2.0,12.0,83,0.00,,---,0.00,VWS V13.01,2013-04-15 11:44:00,
2013-04-15 04:49:00,46.6,41.7,24.80,WNW,300,0.0,13.0,83,0.00,,---,0.00,VWS V13.01,2013-04-15 11:49:00,
2013-04-15 04:54:00,46.6,41.7,24.80,NW,307,1.0,13.0,83,0.00,,---,0.00,VWS V13.01,2013-04-15 11:54:00,
2013-04-15 04:59:00,46.6,41.7,24.80,NNW,340,0.0,13.0,83,0.00,,---,0.00,VWS V13.01,2013-04-15 11:59:00,
2013-04-15 05:04:00,46.5,41.6,24.80,NW,309,2.0,13.0,83,0.00,,---,0.00,VWS V13.01,2013-04-15 12:04:00,
2013-04-15 05:09:00,46.4,41.5,24.80,West,281,0.0,13.0,83,0.00,,---,0.00,VWS V13.01,2013-04-15 12:09:00,
2013-04-15 05:14:00,46.4,41.8,24.80,NE,34,0.0,13.0,84,0.00,,---,0.00,VWS V13.01,2013-04-15 12:14:00,
2013-04-15 05:19:00,46.3,41.4,24.80,WNW,287,0.0,13.0,83,0.00,,---,0.00,VWS V13.01,2013-04-15 12:19:00,
2013-04-15 05:24:00,46.3,41.4,24.80,WSW,252,0.0,13.0,83,0.00,,---,0.00,VWS V13.01,2013-04-15 12:24:00,
2013-04-15 05:29:00,46.3,41.4,24.80,West,274,0.0,13.0,83,0.00,,---,0.00,VWS V13.01,2013-04-15 12:29:00,
2013-04-15 05:34:00,46.3,41.4,24.80,WNW,295,4.0,13.0,83,0.00,,---,0.00,VWS V13.01,2013-04-15 12:34:00,
2013-04-15 05:40:00,46.4,41.5,24.80,NW,304,0.0,13.0,83,0.00,,---,0.00,VWS V13.01,2013-04-15 12:40:00,
2013-04-15 05:45:00,46.3,41.4,24.80,WNW,291,0.0,13.0,83,0.00,,---,0.00,VWS V13.01,2013-04-15 12:45:00,
2013-04-15 05:50:00,46.3,41.4,24.80,NW,304,3.0,13.0,83,0.00,,---,0.00,VWS V13.01,2013-04-15 12:50:00,
2013-04-15 05:55:00,46.2,41.3,24.80,NW,304,2.0,13.0,83,0.00,,---,0.00,VWS V13.01,2013-04-15 12:55:00,
2013-04-15 06:00:00,46.1,41.2,24.80,WNW,288,0.0,13.0,83,0.00,,---,0.00,VWS V13.01,2013-04-15 13:00:00,
2013-04-15 06:05:00,46.0,41.1,24.80,NW,304,1.0,3.0,83,0.00,,---,0.00,VWS V13.01,2013-04-15 13:05:00,
2013-04-15 06:10:00,45.9,41.0,24.80,West,280,0.0,7.0,83,0.00,,---,0.00,VWS V13.01,2013-04-15 13:10:00,
2013-04-15 06:15:00,45.8,40.9,24.80,NW,304,0.0,7.0,83,0.00,,---,0.00,VWS V13.01,2013-04-15 13:15:00,
2013-04-15 06:20:00,45.7,40.5,24.80,SW,233,0.0,7.0,82,0.00,,---,0.00,VWS V13.01,2013-04-15 13:20:00,
2013-04-15 06:26:00,45.5,40.3,24.80,SW,236,0.0,7.0,82,0.00,,---,0.00,VWS V13.01,2013-04-15 13:26:00,
2013-04-15 06:31:00,45.4,40.2,24.80,WNW,294,0.0,7.0,82,0.00,,---,0.00,VWS V13.01,2013-04-15 13:31:00,
2013-04-15 06:36:00,45.3,40.1,24.80,WNW,298,0.0,7.0,82,0.00,,---,0.00,VWS V13.01,2013-04-15 13:36:00,
2013-04-15 06:41:00,45.1,39.9,24.80,SSW,211,0.0,7.0,82,0.00,,---,0.00,VWS V13.01,2013-04-15 13:41:00,
2013-04-15 06:46:00,45.0,39.8,24.80,WNW,290,0.0,7.0,82,0.00,,---,0.00,VWS V13.01,2013-04-15 13:46:00,
2013-04-15 06:51:00,44.9,39.8,24.80,West,272,0.0,7.0,82,0.00,,---,0.00,VWS V13.01,2013-04-15 13:51:00,
2013-04-15 06:56:00,44.7,39.9,24.80,SW,223,0.0,7.0,83,0.00,,---,0.00,VWS V13.01,2013-04-15 13:56:00,
2013-04-15 07:01:00,44.5,39.7,24.80,SW,224,0.0,7.0,83,0.00,,---,0.00,VWS V13.01,2013-04-15 14:01:00,
2013-04-15 07:06:00,44.4,39.6,24.80,SW,224,0.0,1.0,83,0.00,,---,0.00,VWS V13.01,2013-04-15 14:06:00,
2013-04-15 07:11:00,44.2,39.4,24.80,WSW,240,0.0,5.0,83,0.00,,---,0.00,VWS V13.01,2013-04-15 14:11:00,
2013-04-15 07:16:00,44.2,39.4,24.80,WSW,240,0.0,5.0,83,0.00,,---,0.00,VWS V13.01,2013-04-15 14:16:00,
2013-04-15 07:21:00,44.3,39.2,24.80,NW,307,0.0,5.0,82,0.00,,---,0.00,VWS V13.01,2013-04-15 14:21:00,
2013-04-15 07:26:00,44.4,39.3,24.80,West,260,0.0,5.0,82,0.00,,---,0.00,VWS V13.01,2013-04-15 14:26:00,
2013-04-15 07:31:00,44.6,39.5,24.80,West,276,0.0,5.0,82,0.00,,---,0.00,VWS V13.01,2013-04-15 14:31:00,
2013-04-15 07:36:00,44.9,39.4,24.80,West,261,0.0,5.0,81,0.00,,---,0.00,VWS V13.01,2013-04-15 14:36:00,
2013-04-15 07:42:00,45.3,39.5,24.80,NW,311,0.0,5.0,80,0.00,,---,0.00,VWS V13.01,2013-04-15 14:42:00,
2013-04-15 07:47:00,45.7,39.9,24.80,NW,311,0.0,5.0,80,0.00,,---,0.00,VWS V13.01,2013-04-15 14:47:00,
2013-04-15 07:52:00,46.1,39.6,24.80,West,272,4.0,5.0,78,0.00,,---,0.00,VWS V13.01,2013-04-15 14:52:00,
2013-04-15 07:57:00,46.5,39.4,24.80,SW,235,0.0,6.0,76,0.00,,---,0.00,VWS V13.01,2013-04-15 14:57:00,
2013-04-15 08:02:00,46.9,40.4,24.80,WSW,252,0.0,6.0,78,0.00,,---,0.00,VWS V13.01,2013-04-15 15:02:00,
2013-04-15 08:07:00,47.2,39.7,24.80,NNE,24,0.0,5.0,75,0.00,,---,0.00,VWS V13.01,2013-04-15 15:07:00,
2013-04-15 08:12:00,47.4,39.5,24.80,NW,323,2.0,6.0,74,0.00,,---,0.00,VWS V13.01,2013-04-15 15:12:00,
2013-04-15 08:17:00,47.7,39.8,24.80,WNW,301,4.0,9.0,74,0.00,,---,0.00,VWS V13.01,2013-04-15 15:17:00,
2013-04-15 08:22:00,48.0,39.1,24.80,NNW,331,4.0,11.0,71,0.00,,---,0.00,VWS V13.01,2013-04-15 15:22:00,
2013-04-15 08:27:00,48.2,39.2,24.80,NW,309,3.0,11.0,71,0.00,,---,0.00,VWS V13.01,2013-04-15 15:27:00,
2013-04-15 08:33:00,48.4,39.4,24.80,WNW,299,0.0,14.0,71,0.00,,---,0.00,VWS V13.01,2013-04-15 15:33:00,
2013-04-15 08:37:00,48.8,39.5,24.80,NW,324,3.0,14.0,70,0.00,,---,0.00,VWS V13.01,2013-04-15 15:37:00,
2013-04-15 08:43:00,48.9,38.8,24.80,North,355,0.0,14.0,68,0.00,,---,0.00,VWS V13.01,2013-04-15 15:43:00,
2013-04-15 08:48:00,49.0,38.5,24.80,NW,304,7.0,14.0,67,0.00,,---,0.00,VWS V13.01,2013-04-15 15:48:00,
2013-04-15 08:53:00,49.3,38.4,24.80,West,269,3.0,14.0,66,0.00,,---,0.00,VWS V13.01,2013-04-15 15:53:00,
2013-04-15 08:58:00,49.6,38.7,24.80,NW,320,6.0,14.0,66,0.00,,---,0.00,VWS V13.01,2013-04-15 15:58:00,
2013-04-15 09:03:00,49.7,38.8,24.80,NNW,330,5.0,7.0,66,0.00,,---,0.00,VWS V13.01,2013-04-15 16:03:00,
2013-04-15 09:08:00,49.9,39.0,24.80,ENE,74,1.0,12.0,66,0.00,,---,0.00,VWS V13.01,2013-04-15 16:08:00,
2013-04-15 09:13:00,50.3,39.0,24.80,North,9,4.0,12.0,65,0.00,,---,0.00,VWS V13.01,2013-04-15 16:13:00,
2013-04-15 09:18:00,50.4,38.3,24.80,WNW,301,7.0,12.0,63,0.00,,---,0.00,VWS V13.01,2013-04-15 16:18:00,
2013-04-15 09:19:00,53.1,39.2,24.80,NW,315,6.0,12.0,59,0.00,,---,0.00,VWS V13.01,2013-04-15 16:19:00,
2013-04-15 09:20:00,53.2,38.8,24.80,NNW,336,6.0,12.0,58,0.00,,---,0.00,VWS V13.01,2013-04-15 16:20:00,
2013-04-15 09:21:00,53.2,38.8,24.80,NE,41,1.0,12.0,58,0.00,,---,0.00,VWS V13.01,2013-04-15 16:21:00,
2013-04-15 09:22:00,53.4,39.0,24.80,NW,306,4.0,12.0,58,0.00,,---,0.00,VWS V13.01,2013-04-15 16:22:00,
2013-04-15 09:23:00,53.5,38.7,24.80,NNW,347,2.0,12.0,57,0.00,,---,0.00,VWS V13.01,2013-04-15 16:23:00,
2013-04-15 09:24:00,50.6,38.5,24.80,East,82,2.0,12.0,63,0.00,,---,0.00,VWS V13.01,2013-04-15 16:24:00,
2013-04-15 09:25:00,53.6,38.8,24.80,NNW,338,4.0,12.0,57,0.00,,---,0.00,VWS V13.01,2013-04-15 16:25:00,
2013-04-15 09:26:00,53.7,38.8,24.80,North,360,0.0,12.0,57,0.00,,---,0.00,VWS V13.01,2013-04-15 16:26:00,
2013-04-15 09:27:00,53.8,39.4,24.80,NW,312,2.0,12.0,58,0.00,,---,0.00,VWS V13.01,2013-04-15 16:27:00,
2013-04-15 09:29:00,51.1,38.5,24.80,WNW,298,5.0,12.0,62,0.00,,---,0.00,VWS V13.01,2013-04-15 16:29:00,
2013-04-15 09:34:00,51.3,38.7,24.80,NW,314,3.0,12.0,62,0.00,,---,0.00,VWS V13.01,2013-04-15 16:34:00,
2013-04-15 09:39:00,51.5,38.5,24.80,NNW,336,2.0,12.0,61,0.00,,---,0.00,VWS V13.01,2013-04-15 16:39:00,
2013-04-15 09:44:00,51.7,38.7,24.80,West,271,7.0,12.0,61,0.00,,---,0.00,VWS V13.01,2013-04-15 16:44:00,
2013-04-15 09:49:00,51.9,39.3,24.80,NW,319,4.0,12.0,62,0.00,,---,0.00,VWS V13.01,2013-04-15 16:49:00,
2013-04-15 09:54:00,52.3,38.8,24.80,NW,315,2.0,12.0,60,0.00,,---,0.00,VWS V13.01,2013-04-15 16:54:00,
2013-04-15 09:59:00,52.3,38.4,24.80,WNW,299,3.0,13.0,59,0.00,,---,0.00,VWS V13.01,2013-04-15 16:59:00,
2013-04-15 10:04:00,52.3,38.4,24.80,NNW,343,4.0,12.0,59,0.00,,---,0.00,VWS V13.01,2013-04-15 17:04:00,
2013-04-15 10:09:00,52.5,38.6,24.80,NW,317,4.0,12.0,59,0.00,,---,0.00,VWS V13.01,2013-04-15 17:09:00,
2013-04-15 10:15:00,52.9,39.0,24.80,NNW,336,5.0,12.0,59,0.00,,---,0.00,VWS V13.01,2013-04-15 17:15:00,
2013-04-15 10:20:00,53.0,39.1,24.80,NNW,338,0.0,12.0,59,0.00,,---,0.00,VWS V13.01,2013-04-15 17:20:00,
2013-04-15 10:23:00,53.3,38.9,24.80,West,280,0.0,12.0,58,0.00,,---,0.00,VWS V13.01,2013-04-15 17:23:00,
2013-04-15 10:26:00,56.0,39.6,24.80,NW,317,5.0,20.0,54,0.00,,---,0.00,VWS V13.01,2013-04-15 17:26:00,
2013-04-15 10:27:00,56.0,39.6,24.80,WNW,297,7.0,20.0,54,0.00,,---,0.00,VWS V13.01,2013-04-15 17:27:00,
2013-04-15 10:28:00,53.7,38.8,24.80,North,360,1.0,12.0,57,0.00,,---,0.00,VWS V13.01,2013-04-15 17:28:00,
2013-04-15 10:29:00,56.0,39.6,24.80,WNW,298,12.0,20.0,54,0.00,,---,0.00,VWS V13.01,2013-04-15 17:29:00,
2013-04-15 10:30:00,56.0,39.6,24.80,West,264,16.0,20.0,54,0.00,,---,0.00,VWS V13.01,2013-04-15 17:30:00,
2013-04-15 10:31:00,55.9,39.5,24.80,WSW,238,9.0,20.0,54,0.00,,---,0.00,VWS V13.01,2013-04-15 17:31:00,
2013-04-15 10:33:00,53.9,39.0,24.80,NW,308,5.0,12.0,57,0.00,,---,0.00,VWS V13.01,2013-04-15 17:33:00,
2013-04-15 10:38:00,53.7,38.4,24.80,North,360,2.0,12.0,56,0.00,,---,0.00,VWS V13.01,2013-04-15 17:38:00,
2013-04-15 10:43:00,54.0,38.2,24.80,NW,309,3.0,12.0,55,0.00,,---,0.00,VWS V13.01,2013-04-15 17:43:00,
2013-04-15 10:49:00,54.2,38.4,24.80,NW,319,6.0,12.0,55,0.00,,---,0.00,VWS V13.01,2013-04-15 17:49:00,
2013-04-15 10:54:00,54.5,38.7,24.80,ENE,75,1.0,12.0,55,0.00,,---,0.00,VWS V13.01,2013-04-15 17:54:00,
2013-04-15 10:59:00,55.0,39.2,24.80,NNW,336,3.0,14.0,55,0.00,,---,0.00,VWS V13.01,2013-04-15 17:59:00,
2013-04-15 11:04:00,55.4,39.0,24.80,NW,321,5.0,9.0,54,0.00,,---,0.00,VWS V13.01,2013-04-15 18:04:00,
2013-04-15 11:09:00,55.6,39.7,24.80,WSW,253,0.0,9.0,55,0.00,,---,0.00,VWS V13.01,2013-04-15 18:09:00,
2013-04-15 11:14:00,55.9,40.0,24.80,WNW,296,1.0,12.0,55,0.00,,---,0.00,VWS V13.01,2013-04-15 18:14:00,
2013-04-15 11:19:00,56.0,39.6,24.80,NW,304,2.0,12.0,54,0.00,,---,0.00,VWS V13.01,2013-04-15 18:19:00,
2013-04-15 11:24:00,56.5,40.1,24.80,West,262,17.0,17.0,54,0.00,,---,0.00,VWS V13.01,2013-04-15 18:24:00,
2013-04-15 11:32:00,56.0,39.6,24.80,West,275,13.0,20.0,54,0.00,,---,0.00,VWS V13.01,2013-04-15 18:32:00,
2013-04-15 11:37:00,55.9,39.5,24.80,West,279,5.0,20.0,54,0.00,,---,0.00,VWS V13.01,2013-04-15 18:37:00,
2013-04-15 11:42:00,56.4,40.5,24.80,West,277,10.0,20.0,55,0.00,,---,0.00,VWS V13.01,2013-04-15 18:42:00,
2013-04-15 11:47:00,56.6,39.7,24.80,WSW,254,9.0,20.0,53,0.00,,---,0.00,VWS V13.01,2013-04-15 18:47:00,
2013-04-15 11:52:00,56.5,39.6,24.80,WNW,286,7.0,20.0,53,0.00,,---,0.00,VWS V13.01,2013-04-15 18:52:00,
2013-04-15 11:54:00,56.9,39.0,28.50,NW,311,9.0,21.0,51,0.00,,---,0.00,VWS V13.01,2013-04-15 18:54:00,
2013-04-15 11:55:00,56.9,39.0,28.50,NW,323,9.0,21.0,51,0.00,,---,0.00,VWS V13.01,2013-04-15 18:55:00,
2013-04-15 11:56:00,56.8,38.4,28.50,WNW,296,10.0,21.0,50,0.00,,---,0.00,VWS V13.01,2013-04-15 18:56:00,
2013-04-15 11:57:00,56.6,39.7,24.80,WNW,282,12.0,20.0,53,0.00,,---,0.00,VWS V13.01,2013-04-15 18:57:00,
2013-04-15 11:58:00,56.7,39.3,28.50,WNW,286,11.0,22.0,52,0.00,,---,0.00,VWS V13.01,2013-04-15 18:58:00,
2013-04-15 11:59:00,56.6,38.7,28.50,West,277,4.0,22.0,51,0.00,,---,0.00,VWS V13.01,2013-04-15 18:59:00,
2013-04-15 12:00:00,56.6,39.7,28.50,West,263,15.0,22.0,53,0.00,,---,0.00,VWS V13.01,2013-04-15 19:00:00,
2013-04-15 12:01:00,56.6,39.2,28.50,WNW,293,15.0,16.0,52,0.00,,---,0.00,VWS V13.01,2013-04-15 19:01:00,
2013-04-15 12:02:00,56.1,39.7,24.80,NW,309,12.0,12.0,54,0.00,,---,0.00,VWS V13.01,2013-04-15 19:02:00,
2013-04-15 12:03:00,56.6,38.7,28.50,WNW,292,6.0,17.0,51,0.00,,---,0.00,VWS V13.01,2013-04-15 19:03:00,
2013-04-15 12:04:00,56.4,38.5,28.50,North,9,8.0,19.0,51,0.00,,---,0.00,VWS V13.01,2013-04-15 19:04:00,
2013-04-15 12:05:00,56.4,39.0,28.50,WSW,249,5.0,19.0,52,0.00,,---,0.00,VWS V13.01,2013-04-15 19:05:00,
2013-04-15 12:06:00,56.4,39.0,28.50,North,355,9.0,19.0,52,0.00,,---,0.00,VWS V13.01,2013-04-15 19:06:00,
2013-04-15 12:07:00,56.5,39.1,24.80,WSW,250,4.0,19.0,52,0.00,,---,0.00,VWS V13.01,2013-04-15 19:07:00,
2013-04-15 12:12:00,56.5,39.6,24.80,NW,311,2.0,19.0,53,0.00,,---,0.00,VWS V13.01,2013-04-15 19:12:00,
2013-04-15 12:17:00,56.6,40.2,24.80,West,278,11.0,19.0,54,0.00,,---,0.00,VWS V13.01,2013-04-15 19:17:00,
2013-04-15 12:22:00,56.6,39.2,24.80,SW,215,2.0,19.0,52,0.00,,---,0.00,VWS V13.01,2013-04-15 19:22:00,
2013-04-15 12:27:00,56.8,39.9,24.80,SSW,213,1.0,19.0,53,0.00,,---,0.00,VWS V13.01,2013-04-15 19:27:00,
2013-04-15 12:32:00,56.9,39.5,24.80,West,275,13.0,19.0,52,0.00,,---,0.00,VWS V13.01,2013-04-15 19:32:00,
2013-04-15 12:37:00,56.9,40.0,24.80,WNW,292,4.0,19.0,53,0.00,,---,0.00,VWS V13.01,2013-04-15 19:37:00,
2013-04-15 12:42:00,56.7,39.8,28.50,NW,315,4.0,19.0,53,0.00,,---,0.00,VWS V13.01,2013-04-15 19:42:00,
2013-04-15 12:48:00,57.1,39.2,28.50,NNE,17,2.0,20.0,51,0.00,,---,0.00,VWS V13.01,2013-04-15 19:48:00,
2013-04-15 12:53:00,57.1,39.2,28.50,WNW,287,6.0,20.0,51,0.00,,---,0.00,VWS V13.01,2013-04-15 19:53:00,
2013-04-15 12:59:00,56.8,38.9,28.50,NNW,336,12.0,22.0,51,0.00,,---,0.00,VWS V13.01,2013-04-15 19:59:00,
2013-04-15 13:05:00,56.6,38.7,28.50,West,260,9.0,17.0,51,0.00,,---,0.00,VWS V13.01,2013-04-15 20:05:00,
2013-04-15 13:10:00,56.5,39.6,28.50,NW,306,5.0,19.0,53,0.00,,---,0.00,VWS V13.01,2013-04-15 20:10:00,
2013-04-15 13:15:00,56.9,39.5,28.50,NW,311,3.0,19.0,52,0.00,,---,0.00,VWS V13.01,2013-04-15 20:15:00,
2013-04-15 13:20:00,57.1,40.2,28.50,NNW,336,5.0,19.0,53,0.00,,---,0.00,VWS V13.01,2013-04-15 20:20:00,
2013-04-15 13:25:00,57.3,39.8,28.50,NNW,339,5.0,19.0,52,0.00,,---,0.00,VWS V13.01,2013-04-15 20:25:00,
2013-04-15 13:30:00,56.8,38.9,28.50,NW,325,6.0,24.0,51,0.00,,---,0.00,VWS V13.01,2013-04-15 20:30:00,
2013-04-15 13:35:00,56.4,39.5,30.76,NW,315,9.0,24.0,53,0.00,,---,0.00,VWS V13.01,2013-04-15 20:35:00,
2013-04-15 13:40:00,56.7,39.3,30.76,NW,318,5.0,24.0,52,0.00,,---,0.00,VWS V13.01,2013-04-15 20:40:00,
2013-04-15 13:45:00,56.9,39.0,28.87,NW,311,5.0,24.0,51,0.00,,---,0.00,VWS V13.01,2013-04-15 20:45:00,
2013-04-15 13:50:00,57.0,40.1,28.87,NNW,342,3.0,24.0,53,0.00,,---,0.00,VWS V13.01,2013-04-15 20:50:00,
2013-04-15 13:55:00,57.1,40.2,28.87,West,277,9.0,24.0,53,0.00,,---,0.00,VWS V13.01,2013-04-15 20:55:00,
2013-04-15 14:00:00,56.3,39.9,28.87,North,350,5.0,24.0,54,0.00,,---,0.00,VWS V13.01,2013-04-15 21:00:00,
2013-04-15 14:05:00,55.8,39.4,28.87,WNW,302,10.0,17.0,54,0.00,,---,0.00,VWS V13.01,2013-04-15 21:05:00,
2013-04-15 14:10:00,56.1,40.2,28.87,West,281,16.0,28.0,55,0.00,,---,0.00,VWS V13.01,2013-04-15 21:10:00,
2013-04-15 14:15:00,55.8,39.9,28.87,WNW,286,7.0,28.0,55,0.00,,---,0.00,VWS V13.01,2013-04-15 21:15:00,
2013-04-15 14:20:00,55.7,40.3,28.87,NW,317,11.0,28.0,56,0.00,,---,0.00,VWS V13.01,2013-04-15 21:20:00,
2013-04-15 14:25:00,55.9,40.0,28.87,NW,307,9.0,28.0,55,0.00,,---,0.00,VWS V13.01,2013-04-15 21:25:00,
2013-04-15 14:30:00,56.2,39.8,28.87,NW,323,11.0,28.0,54,0.00,,---,0.00,VWS V13.01,2013-04-15 21:30:00,
2013-04-15 14:35:00,56.6,39.7,28.87,NW,314,7.0,28.0,53,0.00,,---,0.00,VWS V13.01,2013-04-15 21:35:00,
2013-04-15 14:40:00,56.6,39.2,23.94,NW,307,3.0,28.0,52,0.00,,---,0.00,VWS V13.01,2013-04-15 21:40:00,
2013-04-15 14:45:00,56.0,38.6,23.94,West,280,14.0,28.0,52,0.00,,---,0.00,VWS V13.01,2013-04-15 21:45:00,
2013-04-15 14:49:00,55.8,38.5,23.94,NW,321,10.0,28.0,52,0.00,,---,0.00,VWS V13.01,2013-04-15 21:49:00,
2013-04-15 14:54:00,55.6,38.3,23.94,West,281,12.0,28.0,52,0.00,,---,0.00,VWS V13.01,2013-04-15 21:54:00,
2013-04-15 14:59:00,55.5,38.7,23.94,NNW,343,6.0,28.0,53,0.00,,---,0.00,VWS V13.01,2013-04-15 21:59:00,
2013-04-15 15:04:00,55.1,38.3,29.78,NW,315,6.0,26.0,53,0.00,,---,0.00,VWS V13.01,2013-04-15 22:04:00,
2013-04-15 15:09:00,55.0,38.2,23.94,NW,311,6.0,26.0,53,0.00,,---,0.00,VWS V13.01,2013-04-15 22:09:00,
2013-04-15 15:14:00,55.6,39.2,23.94,ENE,67,1.0,26.0,54,0.00,,---,0.00,VWS V13.01,2013-04-15 22:14:00,
2013-04-15 15:19:00,56.3,38.4,23.94,North,355,2.0,26.0,51,0.00,,---,0.00,VWS V13.01,2013-04-15 22:19:00,
2013-04-15 15:24:00,55.8,38.0,23.94,NNW,341,22.0,26.0,51,0.00,,---,0.00,VWS V13.01,2013-04-15 22:24:00,
2013-04-15 15:29:00,54.9,37.6,23.94,NW,306,0.0,26.0,52,0.00,,---,0.00,VWS V13.01,2013-04-15 22:29:00,
2013-04-15 15:34:00,54.9,37.1,28.50,WNW,286,19.0,26.0,51,0.00,,---,0.00,VWS V13.01,2013-04-15 22:34:00,
2013-04-15 15:39:00,54.5,37.7,28.50,NW,321,9.0,28.0,53,0.00,,---,0.00,VWS V13.01,2013-04-15 22:39:00,
2013-04-15 15:44:00,54.9,38.6,28.50,WNW,303,9.0,28.0,54,0.00,,---,0.00,VWS V13.01,2013-04-15 22:44:00,
2013-04-15 15:49:00,54.5,38.2,28.50,West,281,5.0,28.0,54,0.00,,---,0.00,VWS V13.01,2013-04-15 22:49:00,
2013-04-15 15:54:00,54.0,36.8,28.50,NNW,338,7.0,33.0,52,0.00,,---,0.00,VWS V13.01,2013-04-15 22:54:00,
2013-04-15 15:59:00,53.9,37.2,28.50,WNW,291,3.0,33.0,53,0.00,,---,0.00,VWS V13.01,2013-04-15 22:59:00,
2013-04-15 16:04:00,54.2,36.5,28.50,WNW,298,3.0,29.0,51,0.00,,---,0.00,VWS V13.01,2013-04-15 23:04:00,
2013-04-15 16:09:00,54.6,36.8,28.50,SSW,211,10.0,29.0,51,0.00,,---,0.00,VWS V13.01,2013-04-15 23:09:00,
2013-04-15 16:14:00,54.5,36.3,28.50,West,272,29.0,31.0,50,0.00,,---,0.00,VWS V13.01,2013-04-15 23:14:00,
2013-04-15 16:19:00,54.1,36.4,28.50,WNW,292,3.0,31.0,51,0.00,,---,0.00,VWS V13.01,2013-04-15 23:19:00,
2013-04-15 16:24:00,54.1,35.9,28.50,SW,230,3.0,32.0,50,0.00,,---,0.00,VWS V13.01,2013-04-15 23:24:00,
2013-04-15 16:29:00,54.6,36.3,28.50,SW,232,7.0,32.0,50,0.00,,---,0.00,VWS V13.01,2013-04-15 23:29:00,
2013-04-15 16:34:00,54.3,36.1,28.50,WNW,287,2.0,32.0,50,0.00,,---,0.00,VWS V13.01,2013-04-15 23:34:00,
2013-04-15 16:39:00,54.6,36.3,28.50,WNW,292,7.0,32.0,50,0.00,,---,0.00,VWS V13.01,2013-04-15 23:39:00,
2013-04-15 16:44:00,54.5,36.3,28.50,NW,309,12.0,32.0,50,0.00,,---,0.00,VWS V13.01,2013-04-15 23:44:00,
2013-04-15 16:49:00,54.1,36.4,28.50,West,273,11.0,32.0,51,0.00,,---,0.00,VWS V13.01,2013-04-15 23:49:00,
2013-04-15 16:54:00,54.3,36.6,28.50,WNW,293,12.0,32.0,51,0.00,,---,0.00,VWS V13.01,2013-04-15 23:54:00,
2013-04-15 16:59:00,54.3,37.1,28.50,North,360,1.0,32.0,52,0.00,,---,0.00,VWS V13.01,2013-04-15 23:59:00,
2013-04-15 17:04:00,54.3,37.5,28.50,WNW,298,10.0,25.0,53,0.00,,---,0.00,VWS V13.01,2013-04-16 00:04:00,
2013-04-15 17:09:00,53.7,37.9,28.50,West,271,17.0,25.0,55,0.00,,---,0.00,VWS V13.01,2013-04-16 00:09:00,
2013-04-15 17:14:00,53.5,38.2,28.50,WSW,254,0.0,25.0,56,0.00,,---,0.00,VWS V13.01,2013-04-16 00:14:00,
2013-04-15 17:19:00,53.7,38.8,28.50,West,281,4.0,25.0,57,0.00,,---,0.00,VWS V13.01,2013-04-16 00:19:00,
2013-04-15 17:24:00,53.6,39.2,28.50,West,279,9.0,25.0,58,0.00,,---,0.00,VWS V13.01,2013-04-16 00:24:00,
2013-04-15 17:29:00,53.2,39.3,28.50,West,271,1.0,25.0,59,0.00,,---,0.00,VWS V13.01,2013-04-16 00:29:00,
2013-04-15 17:34:00,52.9,39.0,28.50,West,281,9.0,25.0,59,0.00,,---,0.00,VWS V13.01,2013-04-16 00:34:00,
2013-04-15 17:39:00,52.5,39.5,28.50,WNW,295,14.0,25.0,61,0.00,,---,0.00,VWS V13.01,2013-04-16 00:39:00,
2013-04-15 17:44:00,52.3,39.3,28.50,West,277,20.0,25.0,61,0.00,,---,0.00,VWS V13.01,2013-04-16 00:44:00,
2013-04-15 17:49:00,52.3,38.8,28.50,NW,319,10.0,25.0,60,0.00,,---,0.00,VWS V13.01,2013-04-16 00:49:00,
2013-04-15 17:54:00,52.3,38.8,28.50,WNW,288,7.0,26.0,60,0.00,,---,0.00,VWS V13.01,2013-04-16 00:54:00,
2013-04-15 17:59:00,52.3,38.8,28.50,NNW,336,8.0,30.0,60,0.00,,---,0.00,VWS V13.01,2013-04-16 00:59:00,
2013-04-15 18:04:00,52.1,39.1,28.50,NW,321,7.0,21.0,61,0.00,,---,0.00,VWS V13.01,2013-04-16 01:04:00,
2013-04-15 18:09:00,52.0,39.0,28.50,NW,313,11.0,24.0,61,0.00,,---,0.00,VWS V13.01,2013-04-16 01:09:00,
2013-04-15 18:14:00,52.0,39.0,28.50,NNW,348,11.0,29.0,61,0.00,,---,0.00,VWS V13.01,2013-04-16 01:14:00,
2013-04-15 18:19:00,51.9,38.9,28.50,WNW,282,2.0,29.0,61,0.00,,---,0.00,VWS V13.01,2013-04-16 01:19:00,
2013-04-15 18:24:00,51.9,38.9,16.07,WNW,300,2.0,29.0,61,0.00,,---,0.00,VWS V13.01,2013-04-16 01:24:00,
2013-04-15 18:29:00,51.6,39.0,16.07,NNW,334,3.0,29.0,62,0.00,,---,0.00,VWS V13.01,2013-04-16 01:29:00,
2013-04-15 18:34:00,51.4,39.2,16.07,NNW,333,9.0,29.0,63,0.00,,---,0.00,VWS V13.01,2013-04-16 01:34:00,
2013-04-15 18:39:00,51.5,38.9,16.07,West,281,4.0,29.0,62,0.00,,---,0.00,VWS V13.01,2013-04-16 01:39:00,
2013-04-15 18:44:00,51.5,38.9,16.07,WNW,287,5.0,29.0,62,0.00,,---,0.00,VWS V13.01,2013-04-16 01:44:00,
2013-04-15 18:49:00,50.9,38.8,16.07,WNW,291,3.0,29.0,63,0.00,,---,0.00,VWS V13.01,2013-04-16 01:49:00,
2013-04-15 18:54:00,51.0,39.3,16.07,WNW,300,9.0,29.0,64,0.00,,---,0.00,VWS V13.01,2013-04-16 01:54:00,
2013-04-15 18:59:00,50.8,39.5,16.07,WNW,302,4.0,29.0,65,0.00,,---,0.00,VWS V13.01,2013-04-16 01:59:00,
2013-04-15 19:04:00,50.4,39.1,16.07,WNW,286,6.0,14.0,65,0.00,,---,0.00,VWS V13.01,2013-04-16 02:04:00,
2013-04-15 19:09:00,50.1,39.2,16.07,WSW,250,18.0,21.0,66,0.00,,---,0.00,VWS V13.01,2013-04-16 02:09:00,
2013-04-15 19:14:00,49.9,39.4,16.07,WNW,298,7.0,21.0,67,0.00,,---,0.00,VWS V13.01,2013-04-16 02:14:00,
2013-04-15 19:19:00,49.4,38.9,16.07,WNW,293,0.0,21.0,67,0.00,,---,0.00,VWS V13.01,2013-04-16 02:19:00,
2013-04-15 19:24:00,49.2,39.1,16.07,WNW,300,0.0,21.0,68,0.00,,---,0.00,VWS V13.01,2013-04-16 02:24:00,
2013-04-15 19:29:00,49.0,39.3,16.07,NNW,338,1.0,21.0,69,0.00,,---,0.00,VWS V13.01,2013-04-16 02:29:00,
2013-04-15 19:34:00,48.7,39.4,16.07,NW,309,1.0,21.0,70,0.00,,---,0.00,VWS V13.01,2013-04-16 02:34:00,
2013-04-15 19:39:00,48.5,39.2,16.07,WNW,298,9.0,21.0,70,0.00,,---,0.00,VWS V13.01,2013-04-16 02:39:00,
2013-04-15 19:44:00,48.3,39.3,16.07,West,277,5.0,21.0,71,0.00,,---,0.00,VWS V13.01,2013-04-16 02:44:00,
2013-04-15 19:49:00,48.1,39.2,24.65,NW,304,3.0,21.0,71,0.00,,---,0.00,VWS V13.01,2013-04-16 02:49:00,
2013-04-15 19:54:00,48.0,39.1,24.65,NNW,347,10.0,21.0,71,0.00,,---,0.00,VWS V13.01,2013-04-16 02:54:00,
2013-04-15 19:57:00,47.4,39.2,24.80,NW,314,0.0,15.0,73,0.00,,---,0.00,VWS V13.01,2013-04-16 02:57:00,
2013-04-15 19:58:00,47.4,39.2,24.80,NW,314,0.0,15.0,73,0.00,,---,0.00,VWS V13.01,2013-04-16 02:58:00,
2013-04-15 19:59:00,47.9,39.0,24.80,West,265,6.0,21.0,71,0.00,,---,0.00,VWS V13.01,2013-04-16 02:59:00,
2013-04-15 20:00:00,47.4,39.2,24.80,WSW,257,1.0,15.0,73,0.00,,---,0.00,VWS V13.01,2013-04-16 03:00:00,
2013-04-15 20:01:00,47.4,39.2,24.80,WSW,254,0.0,1.0,73,0.00,,---,0.00,VWS V13.01,2013-04-16 03:01:00,
2013-04-15 20:02:00,47.3,39.1,24.80,WSW,254,0.0,1.0,73,0.00,,---,0.00,VWS V13.01,2013-04-16 03:02:00,
2013-04-15 20:04:00,47.8,38.9,24.80,WNW,297,2.0,12.0,71,0.00,,---,0.00,VWS V13.01,2013-04-16 03:04:00,
2013-04-15 20:09:00,47.7,39.1,24.80,WSW,258,4.0,12.0,72,0.00,,---,0.00,VWS V13.01,2013-04-16 03:09:00,
2013-04-15 20:14:00,47.7,39.1,24.80,WNW,282,3.0,12.0,72,0.00,,---,0.00,VWS V13.01,2013-04-16 03:14:00,
2013-04-15 20:19:00,47.7,39.1,24.80,NW,304,2.0,12.0,72,0.00,,---,0.00,VWS V13.01,2013-04-16 03:19:00,
2013-04-15 20:24:00,47.6,39.0,24.80,WNW,292,2.0,12.0,72,0.00,,---,0.00,VWS V13.01,2013-04-16 03:24:00,
2013-04-15 20:29:00,47.6,39.0,24.80,WNW,293,0.0,12.0,72,0.00,,---,0.00,VWS V13.01,2013-04-16 03:29:00,
2013-04-15 20:34:00,47.5,39.3,24.80,West,277,12.0,12.0,73,0.00,,---,0.00,VWS V13.01,2013-04-16 03:34:00,
2013-04-15 20:39:00,47.5,39.3,24.80,SW,236,1.0,12.0,73,0.00,,---,0.00,VWS V13.01,2013-04-16 03:39:00,
2013-04-15 20:44:00,47.5,39.3,24.80,NW,321,0.0,15.0,73,0.00,,---,0.00,VWS V13.01,2013-04-16 03:44:00,
2013-04-15 20:49:00,47.5,39.3,24.80,West,276,5.0,15.0,73,0.00,,---,0.00,VWS V13.01,2013-04-16 03:49:00,
2013-04-15 20:54:00,47.5,39.3,24.80,West,278,5.0,15.0,73,0.00,,---,0.00,VWS V13.01,2013-04-16 03:54:00,
2013-04-15 20:59:00,47.4,39.2,24.80,NW,314,0.0,15.0,73,0.00,,---,0.00,VWS V13.01,2013-04-16 03:59:00,
2013-04-15 21:02:00,47.4,39.2,24.80,WSW,257,0.0,1.0,73,0.00,,---,0.00,VWS V13.01,2013-04-16 04:02:00,
2013-04-15 21:07:00,47.3,39.5,24.80,WSW,257,0.0,2.0,74,0.00,,---,0.00,VWS V13.01,2013-04-16 04:07:00,
2013-04-15 21:12:00,47.2,39.0,24.80,SW,225,0.0,3.0,73,0.00,,---,0.00,VWS V13.01,2013-04-16 04:12:00,
2013-04-15 21:17:00,47.2,39.0,24.80,WNW,284,0.0,4.0,73,0.00,,---,0.00,VWS V13.01,2013-04-16 04:17:00,
2013-04-15 21:22:00,47.2,39.0,24.80,WSW,240,0.0,6.0,73,0.00,,---,0.00,VWS V13.01,2013-04-16 04:22:00,
2013-04-15 21:27:00,47.2,39.0,24.80,North,5,0.0,7.0,73,0.00,,---,0.00,VWS V13.01,2013-04-16 04:27:00,
2013-04-15 21:32:00,47.2,39.0,24.80,WNW,296,1.0,13.0,73,0.00,,---,0.00,VWS V13.01,2013-04-16 04:32:00,
2013-04-15 21:37:00,47.2,39.0,24.80,NNW,342,3.0,13.0,73,0.00,,---,0.00,VWS V13.01,2013-04-16 04:37:00,
2013-04-15 21:42:00,47.2,39.0,24.80,NW,311,0.0,13.0,73,0.00,,---,0.00,VWS V13.01,2013-04-16 04:42:00,
2013-04-15 21:47:00,47.1,38.9,24.80,South,169,0.0,13.0,73,0.00,,---,0.00,VWS V13.01,2013-04-16 04:47:00,
2013-04-15 21:52:00,47.0,38.8,24.80,NW,326,0.0,13.0,73,0.00,,---,0.00,VWS V13.01,2013-04-16 04:52:00,
2013-04-15 21:57:00,46.9,38.7,24.80,NNW,327,0.0,13.0,73,0.00,,---,0.00,VWS V13.01,2013-04-16 04:57:00,
2013-04-15 22:02:00,46.8,38.6,24.80,SW,221,0.0,13.0,73,0.00,,---,0.00,VWS V13.01,2013-04-16 05:02:00,
2013-04-15 22:07:00,46.7,38.9,24.80,SSE,158,0.0,3.0,74,0.00,,---,0.00,VWS V13.01,2013-04-16 05:07:00,
2013-04-15 22:12:00,46.7,38.9,24.80,WNW,295,1.0,5.0,74,0.00,,---,0.00,VWS V13.01,2013-04-16 05:12:00,
2013-04-15 22:17:00,46.7,38.9,24.80,South,170,2.0,5.0,74,0.00,,---,0.00,VWS V13.01,2013-04-16 05:17:00,
2013-04-15 22:22:00,46.7,38.9,24.80,SSE,149,0.0,5.0,74,0.00,,---,0.00,VWS V13.01,2013-04-16 05:22:00,
2013-04-15 22:27:00,46.7,38.9,24.80,SSE,167,0.0,5.0,74,0.00,,---,0.00,VWS V13.01,2013-04-16 05:27:00,
2013-04-15 22:32:00,46.7,38.9,24.80,WNW,291,0.0,5.0,74,0.00,,---,0.00,VWS V13.01,2013-04-16 05:32:00,
2013-04-15 22:37:00,46.7,38.9,24.80,NW,318,1.0,8.0,74,0.00,,---,0.00,VWS V13.01,2013-04-16 05:37:00,
2013-04-15 22:42:00,46.7,38.9,24.80,SE,138,0.0,8.0,74,0.00,,---,0.00,VWS V13.01,2013-04-16 05:42:00,
2013-04-15 22:47:00,46.7,38.5,24.80,SE,142,0.0,8.0,73,0.00,,---,0.00,VWS V13.01,2013-04-16 05:47:00,
2013-04-15 22:52:00,46.8,38.3,24.80,WNW,286,2.0,8.0,72,0.00,,---,0.00,VWS V13.01,2013-04-16 05:52:00,
2013-04-15 22:57:00,46.9,38.4,24.80,WNW,286,0.0,8.0,72,0.00,,---,0.00,VWS V13.01,2013-04-16 05:57:00,
2013-04-15 23:02:00,46.9,38.0,24.80,WNW,286,2.0,8.0,71,0.00,,---,0.00,VWS V13.01,2013-04-16 06:02:00,
2013-04-15 23:07:00,46.9,38.4,24.80,West,281,0.0,2.0,72,0.00,,---,0.00,VWS V13.01,2013-04-16 06:07:00,
2013-04-15 23:12:00,46.8,38.3,24.80,WNW,298,0.0,3.0,72,0.00,,---,0.00,VWS V13.01,2013-04-16 06:12:00,
2013-04-15 23:17:00,46.7,37.8,24.80,NNW,336,0.0,6.0,71,0.00,,---,0.00,VWS V13.01,2013-04-16 06:17:00,
2013-04-15 23:22:00,46.8,37.9,24.80,West,279,3.0,6.0,71,0.00,,---,0.00,VWS V13.01,2013-04-16 06:22:00,
2013-04-15 23:27:00,46.9,37.6,24.80,NW,323,0.0,6.0,70,0.00,,---,0.00,VWS V13.01,2013-04-16 06:27:00,
2013-04-15 23:32:00,46.9,37.6,24.80,NNE,19,0.0,7.0,70,0.00,,---,0.00,VWS V13.01,2013-04-16 06:32:00,
2013-04-15 23:37:00,46.9,37.3,24.80,West,280,6.0,10.0,69,0.00,,---,0.00,VWS V13.01,2013-04-16 06:37:00,
2013-04-15 23:42:00,47.0,37.4,24.80,NNW,327,5.0,10.0,69,0.00,,---,0.00,VWS V13.01,2013-04-16 06:42:00,
2013-04-15 23:47:00,47.0,37.0,24.80,North,355,0.0,10.0,68,0.00,,---,0.00,VWS V13.01,2013-04-16 06:47:00,
2013-04-15 23:52:00,47.0,37.0,24.80,West,266,1.0,10.0,68,0.00,,---,0.00,VWS V13.01,2013-04-16 06:52:00,
2013-04-15 23:57:00,47.0,37.0,24.80,NE,51,0.0,10.0,68,0.00,,---,0.00,VWS V13.01,2013-04-16 06:57:00,